Home   Weather   Gibraltar   Past weeks

Flag for Gibraltar Past Weather in Gibraltar, Gibraltar — Yesterday and Last 2 Weeks

Now
46 °F

Clear.


Feels Like: 42 °F
Forecast: 50 / 58 °F
Wind: 8 mph from Northwest

Location: Gibraltar Airport

Current Time: Jan 21, 2017 at 1:38:08 am

Latest Report: Jan 20, 2017 at 11:50 pm


Visibility: N/A

Pressure: 30.04 "Hg

Humidity: 76%

Dew Point: 39 °F

Location of GibraltarLocation

Past Weather in Gibraltar — Graph

°F

Gibraltar Temperature Yesterday

Maximum temperature yesterday: 54 °F (at 1:50 pm)
Minimum temperature yesterday: 46 °F (at 1:50 am)
Average temperature yesterday: 49 °F

High & Low Weather Summary for the Past Weeks

 TemperatureHumidityPressure
High66 °F (Jan 11, 3:50 pm)94% (Jan 6, 2:50 am)30.39 "Hg (Jan 6, 2:50 am)
Low39 °F (Jan 19, 3:50 am)29% (Jan 16, 12:50 pm)29.89 "Hg (Jan 20, 1:50 am)
Average55 °F68%30.19 "Hg
* Reported Jan 5 11:50 pm — Jan 20 11:50 pm, Gibraltar, Weather by CustomWeather, © 2017

Note: Actual official high and low records may vary slightly from our data, if they occured in-between our weather recording intervals... More about our weather records

Advertising

Gibraltar Weather History for the Previous 24 Hours

Scroll right to see more
 ConditionsComfort  
Time TempWeatherWind HumidityBarometerVisibility
11:50 pm
Fri, Jan 20
46 °FClear.8 mph76%30.04 "HgN/A
10:50 pm48 °FClear.8 mph71%30.07 "HgN/A
9:50 pm50 °FPassing clouds.10 mph62%30.04 "HgN/A
8:50 pm50 °FPassing clouds.10 mph62%30.04 "HgN/A
7:50 pm50 °FClear.12 mph62%30.01 "Hg10 mi
6:50 pm52 °FPassing clouds.12 mph58%30.01 "HgN/A
5:50 pm52 °FPassing clouds.12 mph54%29.98 "HgN/A
4:50 pm54 °FScattered clouds.14 mph54%29.98 "HgN/A
3:50 pm54 °FPassing clouds.16 mph51%29.98 "HgN/A
2:50 pm54 °FScattered clouds.16 mph54%29.98 "HgN/A
1:50 pm54 °FScattered clouds.13 mph54%29.98 "HgN/A
12:50 pm52 °FScattered clouds.15 mph54%29.98 "HgN/A
11:50 am50 °FScattered clouds.16 mph58%29.98 "HgN/A
10:50 am48 °FScattered clouds.13 mph62%29.98 "HgN/A
9:50 am46 °FScattered clouds.12 mph71%29.98 "HgN/A
8:50 am46 °FScattered clouds.14 mph71%29.95 "HgN/A
7:50 am46 °FPassing clouds.12 mph66%29.92 "HgN/A
6:50 am46 °FPassing clouds.9 mph66%29.92 "HgN/A
5:50 am46 °FPassing clouds.14 mph71%29.92 "HgN/A
4:50 am48 °FPassing clouds.18 mph66%29.92 "HgN/A
3:50 am48 °FPassing clouds.15 mph66%29.92 "HgN/A
2:50 am48 °FPassing clouds.13 mph62%29.89 "HgN/A
1:50 am46 °FPassing clouds.17 mph71%29.89 "HgN/A
Weather by CustomWeather, © 2017

See weather overviewHow to use our weather pages